Погода в Калачигах

Россия / Кировская область     58°01′57″N   49°36′27″E
В апреле 2022 года жителям России запретили посещать сайт meteo.paraplan.net по решению Генеральной прокуратуры. Аудитория сайта уменьшилась в 10 раз. Владельцы сайта не видят смысла в поддержке погодного сервера в таких условиях. Сайт будет закрыт в октябре.
темп.,
°C
ветер,
м/с
пор.,
м/с
влажн.,
%
обл.,
%
осадки,
мм/ч
давл.,
гПа
погр.,
м
4 октября, вт
вт400:00+11ю6146099 0.0 1019646
03:00+10ю51360100 0.0 1020489
06:00+9ююв51263100 0.0 1021395
09:00+10ююв51258100 0.0 1022558
12:00+8ю61581100 0.3 1024560
15:00+9ю61576100 0.9 1024882
18:00+8ю6148199 0.0 1024695
21:00+8ююв51464100 0.0 1024508
5 октября, ср
ср500:00+8ююв51358100 0.0 1023395
03:00+6ююв41071100 0.1 1023308
06:00+7ююв61264100 0.0 1022641
09:00+7ююв61284100 0.3 1021749
12:00+7ю61281100 0.1 1021636
15:00+8ююв5118889 0.4 1020596
18:00+8ююв51184100 0.3 1020500
21:00+8ююв51278100 0.3 1018378
6 октября, чт
чт600:00+7ююв5118176 0.1 1017367
03:00+6ююв5983100 0.4 1015361
06:00+6ююв4797100 1.8 1014382
09:00+6юв3698100 2.3 1013299
12:00+9ю348475 1.3 1012632
15:00+8зюз358998 2.0 1012349
18:00+7зюз369598 0.1 1014285
21:00+6зюз259595 0.1 1014211
7 октября, пт
пт700:00+6зюз2597100 0.0 1014256
03:00+6юз379897 0.2 1014313
06:00+5юз49959 0.0 1013349
09:00+7юз61279100 0.0 1012689
12:00+5юз61290100 0.5 1010750
15:00+6зюз51197100 2.3 1010561
18:00+7з5138964 0.2 1011599
21:00+7з51293100 0.2 1012767
8 октября, сб
сб800:00+8зсз6128692 0.3 10131005
03:00+7зсз5128999 0.4 1015903
06:00+7зсз61184100 0.0 10171120
09:00+8зсз6108211 0.1 1019662
12:00+10з587188 0.0 1020996
15:00+10з487399 0.0 1020973
18:00+7юз3109145 0.0 1020273
21:00+7юз412935 0.0 1020349